Temp
17 17 17 17 18 18 18 18 19 19 19 19 19 20 20 21 22 22 24 22 22 23 23 24 24 26 26 26 26 27 24 25 29 28 27 26 26 27 26 26 25 23 21 20 20
16 17 17 17 17 17 17 18 18 19 19 19 19 20 20 21 22 23 22 22 22 22 23 25 27 27 26 26 26 25 24 25 26 27 27 26 27 25 26 26 23 21 20 21 21
14 15 16 16 16 17 17 18 18 18 19 19 19 20 20 21 22 22 22 22 22 22 22 24 25 26 26 26 26 27 25 26 26 24 24 26 26 27 26 25 25 22 19 20 20
14 14 15 16 16 16 16 17 17 18 19 19 19 20 21 21 24 21 22 22 22 22 23 25 25 26 26 25 26 24 26 26 25 24 25 25 26 26 25 22 21 20 19 20 18
12 13 14 15 16 16 16 16 17 17 18 19 19 20 21 23 23 21 22 22 22 22 24 25 25 26 25 26 25 24 25 25 24 23 24 24 24 24 24 19 18 19 19 17 16
12 12 12 13 15 15 15 16 17 17 18 18 19 20 20 22 21 21 22 22 22 22 24 24 25 24 24 25 24 23 24 25 24 24 23 23 23 24 24 18 18 18 17 16 16
11 12 12 12 12 13 14 15 16 16 17 18 18 19 21 22 20 20 21 21 21 22 24 23 24 24 24 25 23 24 23 23 23 23 23 23 21 22 22 19 18 18 17 15 15
11 11 12 12 12 12 13 14 16 16 17 18 18 18 20 20 19 20 20 20 20 21 22 22 22 23 23 23 23 23 24 22 23 22 21 21 21 22 20 19 19 18 16 14 15
10 11 10 12 12 12 12 14 15 16 17 17 18 19 21 19 19 20 20 21 20 20 20 21 22 23 22 22 22 22 21 22 22 22 20 20 22 21 20 19 19 18 16 15 14
10 10 10 11 11 12 12 14 15 15 16 16 17 18 19 20 18 19 19 21 21 20 21 21 21 20 20 20 20 23 22 23 23 21 21 20 19 21 19 19 19 18 17 15 14
11 10 10 10 11 11 13 14 15 15 16 19 20 22 20 17 17 18 19 20 21 21 19 20 19 19 20 21 23 23 22 22 23 21 22 20 21 22 20 19 19 18 17 15 14
12 11 10 10 10 11 12 16 15 15 17 18 19 20 19 18 18 18 19 19 20 19 20 18 18 21 23 23 22 22 21 20 22 20 21 20 20 21 22 19 20 20 18 15 12
12 11 11 11 10 10 12 15 16 16 17 20 19 19 18 18 20 18 18 19 19 19 20 20 22 22 22 22 21 21 20 21 21 20 20 18 18 20 21 22 20 20 20 16 12
12 11 11 11 10 11 12 14 15 16 17 20 18 19 18 19 18 19 18 20 19 19 20 20 21 21 21 20 20 20 22 21 21 19 17 19 16 20 21 21 21 18 16 14 12
12 11 11 11 14 12 14 14 15 15 15 20 17 16 18 19 17 16 17 18 18 18 20 20 19 18 19 20 21 20 19 20 20 18 18 18 16 19 21 21 20 15 14 13 12
12 11 10 10 12 14 14 15 14 16 16 18 15 15 16 17 16 15 15 17 18 19 19 19 18 19 19 16 19 17 18 19 18 17 14 17 17 18 21 21 20 16 14 13 11
12 12 10 10 11 12 13 14 13 14 21 18 16 16 17 16 15 16 15 15 17 16 16 17 17 18 17 16 17 18 17 16 14 13 14 17 16 19 20 20 20 17 14 13 11
11 12 11 10 11 13 13 13 11 14 18 18 17 16 16 16 16 15 15 15 16 17 19 17 17 17 16 18 16 15 17 15 16 15 15 14 15 17 16 14 15 15 14 12 10
11 10 10 10 11 11 12 11 12 15 18 19 17 16 16 16 16 15 15 16 17 17 18 20 19 18 17 18 18 16 16 18 15 9 11 15 16 19 14 13 14 13 12 11 10
10 11 11 10 10 10 12 10 12 16 18 19 18 18 16 16 14 14 15 17 18 18 19 21 19 17 14 17 17 17 17 14 14 12 13 16 18 18 14 14 12 12 12 11 10
10 11 13 10 10 11 11 10 13 16 17 17 19 19 19 17 15 14 16 18 18 18 18 19 18 14 14 14 16 14 15 16 16 14 14 14 17 21 18 16 13 13 12 11 10
10 12 12 10 12 12 12 12 14 16 17 18 19 20 20 20 16 16 15 18 19 18 17 17 17 12 14 15 16 17 16 16 14 15 15 13 19 19 19 16 14 13 12 11 10
10 11 11 11 13 12 12 12 13 15 15 17 18 19 20 20 19 17 17 18 18 17 16 16 14 14 15 13 14 14 15 17 18 14 16 14 17 14 14 16 14 12 11 11 10
10 11 11 11 12 14 12 12 12 14 14 16 18 18 17 18 19 18 17 18 16 17 15 17 14 16 17 18 16 13 14 16 16 15 15 17 18 15 15 14 14 12 12 11 10
9 11 10 11 12 13 13 13 13 13 14 15 15 16 16 15 17 17 17 15 14 14 15 16 13 15 17 18 17 14 14 15 15 16 16 17 17 19 15 13 14 13 11 11 10
7 8 8 9 9 10 13 13 14 14 14 13 14 15 16 16 17 16 18 16 14 13 13 13 13 14 14 16 14 15 16 14 15 15 16 17 17 19 17 15 13 13 12 11 10
6 6 7 9 11 11 8 10 13 14 15 16 14 15 15 15 16 17 17 16 15 13 11 10 11 11 13 14 13 13 13 15 15 15 16 15 17 16 17 14 14 13 12 11 10
Height
812 813 814 814 814 814 814 814 814 813 812 811 810 808 806 803 801 800 800 802 802 802 803 803 803 802 801 802 803 802 822 823 808 808 811 806 812 807 808 813 815 821 825 831 833
813 813 814 814 815 815 815 814 814 814 812 811 809 807 805 802 801 801 802 802 801 803 804 803 801 802 803 804 804 809 820 816 802 801 806 808 808 812 814 815 821 827 829 831 832
814 814 814 814 815 815 815 815 814 813 812 810 808 806 804 802 802 802 802 801 802 803 804 804 804 803 805 805 805 805 818 807 806 807 806 809 811 806 813 819 815 821 828 831 833
814 815 814 814 815 814 814 814 813 812 811 810 808 806 803 803 813 802 802 802 803 804 805 805 804 806 809 813 806 820 807 807 809 811 810 812 808 813 814 821 819 819 824 830 834
813 814 815 814 814 814 814 813 812 811 810 809 807 806 804 803 802 802 802 802 804 805 806 805 807 805 813 807 810 815 810 810 810 813 813 812 816 815 814 817 820 823 826 831 834
811 813 814 814 813 814 813 813 811 810 809 808 807 806 806 810 803 802 802 803 805 806 807 807 807 806 810 810 815 814 812 811 811 813 814 819 816 813 810 815 822 825 828 831 834
809 810 812 813 813 813 812 811 811 809 808 808 807 806 806 803 802 802 803 804 805 807 807 808 808 809 808 812 812 813 821 814 813 813 816 816 825 817 810 814 821 824 828 831 834
807 808 809 811 812 812 810 810 810 809 808 808 807 807 804 800 801 802 803 804 806 807 808 809 809 809 811 812 814 819 818 827 810 812 820 822 828 807 807 815 820 823 828 831 833
804 806 807 809 810 811 810 809 809 809 807 807 807 807 803 800 801 801 803 804 806 808 809 810 810 812 815 822 827 820 834 824 821 812 820 827 821 812 810 815 819 822 825 828 831
801 803 805 807 808 809 810 809 808 807 806 806 807 811 800 799 799 801 803 804 806 808 810 811 813 820 822 826 841 825 828 817 816 818 816 825 826 813 812 812 814 817 820 824 828
798 800 802 805 806 808 810 810 810 809 805 795 793 790 794 798 799 801 803 804 805 808 817 813 824 827 818 813 809 812 817 821 808 812 814 818 815 806 807 809 811 810 814 819 824
793 798 799 803 806 807 809 808 805 808 803 790 789 789 791 794 799 800 802 806 807 814 811 822 825 807 802 801 809 812 819 824 810 813 815 816 814 803 797 800 798 799 804 811 821
788 794 796 800 804 806 806 805 804 804 804 783 780 782 786 791 791 795 798 798 805 810 808 812 801 794 803 807 812 814 821 820 819 815 816 821 820 805 790 783 788 790 792 800 811
782 787 792 796 805 802 802 801 804 804 809 780 777 773 778 783 789 784 789 793 800 805 804 805 796 801 803 809 811 822 805 811 815 825 839 819 835 798 785 783 780 786 792 798 806
776 780 785 785 791 794 793 796 803 805 826 765 770 774 773 779 781 789 788 792 796 799 796 799 800 807 808 802 801 811 808 811 813 826 829 825 836 796 780 782 776 785 789 795 801
770 773 778 784 786 789 792 792 804 812 801 770 774 777 781 778 785 791 793 792 790 793 794 796 797 796 798 807 803 809 815 817 821 828 846 823 822 796 778 768 766 777 783 790 798
761 766 771 777 776 786 791 790 813 808 748 759 771 772 773 777 785 788 794 796 794 807 806 801 800 797 798 811 811 808 820 839 849 854 839 806 815 783 768 761 760 769 780 788 796
754 757 761 766 776 778 785 795 806 776 760 748 756 768 773 772 779 787 792 794 789 785 786 798 804 792 793 789 805 816 812 835 836 836 825 819 812 783 771 770 768 770 778 787 795
749 750 752 756 768 773 772 779 767 746 738 749 761 766 771 770 775 784 783 776 769 775 782 779 784 775 783 782 790 810 817 798 820 851 840 805 786 763 772 776 774 776 779 786 792
743 744 741 748 758 767 759 763 744 728 728 736 746 747 759 766 779 782 777 753 760 757 761 763 777 779 792 789 788 791 793 823 826 842 832 790 778 768 774 770 777 774 774 781 789
737 734 726 740 751 743 744 755 728 730 729 738 733 732 734 751 763 770 753 741 742 748 758 762 773 798 795 794 784 799 800 796 799 810 817 807 770 729 742 749 761 766 768 774 782
731 718 718 730 732 724 721 721 725 730 729 727 723 720 721 728 749 750 747 735 729 739 756 756 767 799 789 775 772 772 783 786 802 803 790 798 739 732 733 739 748 757 763 771 778
721 717 716 715 707 711 719 717 716 724 727 723 720 715 715 720 735 732 730 726 727 733 742 750 774 788 781 787 781 779 773 769 770 785 764 794 739 745 745 741 746 754 761 765 773
714 710 710 699 695 695 711 710 716 715 722 716 712 716 718 720 715 718 724 721 724 728 735 737 753 751 749 743 754 774 769 764 769 772 770 744 739 749 747 748 748 750 753 760 766
708 695 695 691 682 684 690 692 705 707 707 711 713 710 718 726 722 711 718 728 730 730 735 738 754 748 736 734 742 753 756 755 757 746 759 718 737 730 737 743 739 741 750 755 760
710 704 702 693 694 690 680 679 684 688 692 699 702 698 704 709 697 699 707 715 725 733 737 739 744 744 742 736 744 745 738 739 745 743 740 727 713 718 717 723 734 736 743 748 751
706 703 701 688 684 689 694 689 676 680 679 682 691 698 695 688 689 696 697 700 708 722 738 747 750 755 733 737 747 750 705 730 725 725 723 729 690 716 715 719 722 726 732 737 743
Wind_Speed
2 1 1 2 2 2 3 4 5 5 6 8 10 11 13 13 11 5 1 1 1 1 0 2 3 2 4 2 2 2 2 3 1 1 5 7 5 1 1 4 5 5 4 6 6
3 2 1 2 3 4 4 4 5 6 7 9 10 12 13 14 8 5 2 3 2 2 2 3 2 1 2 1 1 1 2 6 7 7 4 7 5 9 3 6 5 6 9 9 9
5 4 3 3 3 3 4 5 6 7 8 9 11 12 13 11 3 3 2 1 2 4 2 3 5 3 3 2 2 1 2 4 6 8 9 6 1 2 3 4 4 8 10 8 12
8 7 6 5 5 5 5 6 7 8 8 10 12 13 12 4 3 0 1 2 4 3 1 2 5 3 2 2 3 4 2 5 4 3 3 3 2 1 6 4 8 10 13 10 10
11 10 9 7 7 7 7 7 8 8 9 10 12 12 5 3 2 1 2 4 4 4 3 3 5 3 4 2 1 4 3 2 5 2 2 4 3 5 3 9 10 9 10 9 9
13 12 11 9 9 8 7 8 8 9 9 10 11 9 3 5 1 1 2 5 3 1 2 3 5 6 5 2 1 5 4 4 6 5 3 2 4 3 5 12 10 8 9 8 9
13 13 12 11 10 9 8 8 9 8 9 8 8 6 3 4 2 1 4 4 4 1 1 3 4 3 5 2 3 2 4 7 8 6 1 3 7 10 7 9 10 8 9 8 8
15 14 13 12 11 10 9 9 9 8 8 7 6 3 5 5 4 5 5 3 3 1 1 2 0 2 3 2 3 3 3 3 4 10 4 4 7 8 12 10 9 9 9 8 6
17 15 13 12 11 10 10 10 9 9 8 5 3 2 4 2 3 7 7 5 6 5 3 2 1 1 1 3 4 5 5 7 4 8 6 7 5 4 6 8 8 9 9 8 7
19 16 14 12 10 10 10 9 9 10 5 2 3 3 5 2 5 5 6 9 3 7 4 4 3 3 3 5 5 5 5 6 5 7 5 7 11 6 9 9 10 10 9 9 8
19 19 15 13 11 8 6 6 4 3 6 8 6 1 4 4 5 6 5 7 5 4 6 6 4 7 12 11 10 9 6 8 6 4 4 9 9 11 12 9 10 10 10 10 8
22 20 16 13 11 7 5 5 2 1 6 16 12 6 7 8 4 7 10 7 5 7 8 3 9 12 9 6 6 9 7 9 7 8 2 7 12 10 7 14 16 14 11 11 10
25 23 18 13 10 10 11 8 3 1 5 6 13 7 6 11 7 13 9 5 6 8 10 11 3 3 11 3 4 6 7 7 7 4 4 5 8 13 12 16 15 11 7 12 15
30 27 20 14 9 13 10 20 5 2 4 7 8 6 8 6 6 6 21 4 6 11 9 9 12 3 6 7 8 7 4 11 5 3 4 7 6 8 8 12 16 11 9 11 13
34 30 26 31 5 15 7 15 14 1 5 2 8 2 7 10 10 0 2 2 9 8 7 5 7 8 7 6 8 4 6 3 2 5 4 4 6 7 15 16 12 11 11 10 11
36 34 31 31 19 14 13 23 7 4 11 4 5 6 7 6 3 3 2 2 2 5 4 2 2 3 4 4 3 9 5 2 1 1 5 13 12 6 12 15 7 10 11 11 12
41 40 39 33 20 16 22 13 4 7 4 10 6 8 9 8 6 6 9 9 9 6 9 7 8 4 4 5 4 4 6 2 2 1 7 2 9 15 5 2 3 15 14 11 12
43 43 44 40 25 25 26 11 8 22 30 5 6 7 8 8 5 7 8 8 15 10 3 11 6 16 9 12 7 10 8 5 6 4 4 4 7 6 3 6 4 11 13 12 13
35 41 32 41 38 31 10 11 16 18 15 16 8 6 8 6 6 8 10 10 12 20 13 8 7 5 5 3 9 5 7 9 3 2 1 6 7 6 5 4 2 10 13 14 14
20 22 28 40 41 27 15 17 15 23 10 25 29 15 12 13 9 12 13 8 12 22 12 4 3 2 4 3 3 4 6 3 1 2 6 6 11 8 6 11 9 12 17 16 15
14 6 15 41 42 11 17 12 19 13 18 16 24 15 22 11 16 11 10 4 18 15 21 3 0 1 6 8 13 4 4 5 4 4 4 4 7 3 15 16 19 15 16 17 17
4 6 22 48 14 8 15 30 15 14 16 13 17 21 17 21 14 17 15 9 15 16 17 9 3 5 9 2 1 3 8 10 5 6 7 2 19 2 4 12 15 16 15 15 16
4 2 21 41 15 14 14 24 20 14 23 16 13 17 19 17 18 21 11 8 13 18 18 12 5 1 2 1 3 6 7 16 14 1 20 5 12 3 6 6 9 13 14 15 16
3 5 6 8 9 21 16 19 23 20 23 20 22 13 6 12 21 8 16 6 16 15 10 15 6 14 18 7 7 7 10 19 18 11 7 25 19 2 5 5 7 11 15 15 16
4 5 4 4 12 22 25 17 28 21 22 18 16 23 23 15 19 28 9 2 3 8 8 12 8 9 20 18 7 7 11 21 25 27 15 27 24 20 12 13 16 10 12 15 15
3 2 2 2 3 4 20 27 28 28 18 24 25 30 23 29 30 29 19 12 7 5 8 2 8 13 23 18 9 14 18 19 23 24 27 32 34 5 10 13 9 14 16 16 17
4 3 2 2 10 12 4 5 12 23 20 28 32 25 25 34 27 20 9 4 5 11 8 8 5 5 21 8 8 10 38 22 24 24 25 26 37 12 15 14 15 17 17 17 16
Wind_Direction
154 108 29 353 2 2 5 4 1 1 359 358 353 351 348 343 340 5 351 305 266 260 184 351 302 296 272 134 276 276 303 248 219 248 122 125 158 30 53 125 64 38 63 104 128
205 201 247 307 326 336 341 345 347 350 354 351 350 347 347 343 342 282 307 281 246 173 34 266 245 220 198 169 254 268 301 0 1 44 90 154 221 147 177 161 124 105 101 113 112
249 242 240 266 287 307 321 330 339 345 345 346 344 345 343 339 278 66 328 218 153 158 27 318 307 286 272 345 122 33 302 4 40 37 356 117 298 46 228 219 56 168 133 121 106
256 264 264 269 284 296 309 320 331 338 340 341 343 340 335 354 341 226 70 128 135 132 273 225 252 244 277 216 78 297 66 14 46 57 358 110 32 190 233 101 70 79 117 125 98
256 264 269 275 282 292 303 314 325 332 336 341 342 343 3 260 69 58 119 136 113 107 258 292 288 335 267 56 24 234 119 63 83 118 287 34 275 249 299 123 101 100 109 109 106
249 257 267 273 279 285 295 306 317 328 337 343 344 346 323 269 89 190 158 148 120 220 169 277 357 3 299 345 273 8 354 252 162 213 206 234 264 228 239 137 128 149 128 114 114
249 248 258 268 276 282 291 298 309 323 332 341 351 2 266 271 170 208 139 154 177 298 273 46 340 286 6 189 83 341 293 230 221 205 290 141 276 235 152 144 151 175 138 131 136
249 251 250 260 271 280 289 294 304 316 320 328 338 12 269 208 176 172 151 103 123 110 49 115 312 355 339 116 217 240 201 252 356 145 150 170 274 359 136 153 177 179 153 151 146
247 248 252 252 261 276 285 294 307 307 307 314 348 272 259 118 167 172 173 159 126 119 118 129 224 293 125 223 251 195 255 216 158 182 130 191 275 144 154 181 185 182 166 170 155
244 242 248 249 253 268 284 302 300 295 300 274 257 303 175 149 132 161 179 157 143 147 130 196 209 205 210 199 216 216 219 247 245 196 192 198 258 213 191 193 196 184 176 176 172
252 241 239 249 247 259 289 310 250 209 222 205 171 214 132 118 132 186 157 151 157 217 189 202 209 207 211 217 249 294 312 295 303 138 185 226 244 249 191 201 214 197 179 177 169
245 242 233 235 239 234 223 247 87 344 295 229 254 251 147 172 137 173 174 180 188 200 212 110 232 236 237 239 251 236 254 264 284 129 166 274 266 257 228 209 206 206 192 169 137
239 236 226 222 223 221 220 226 228 24 262 240 202 200 176 167 208 175 184 207 187 211 205 210 179 220 227 203 216 241 235 254 245 154 220 301 276 252 244 232 207 212 188 164 154
237 224 214 185 208 208 222 220 222 167 270 227 191 230 134 180 225 163 193 166 191 215 221 231 246 197 179 214 189 247 236 227 256 320 244 140 281 278 286 240 220 188 158 145 148
241 221 205 188 182 189 186 195 196 234 282 345 118 34 150 178 132 171 105 85 196 189 184 212 168 169 195 183 186 208 54 29 244 249 301 260 269 256 226 248 218 175 174 158 151
247 227 206 202 219 199 195 157 155 197 238 155 121 144 148 233 74 97 134 311 333 232 243 263 339 194 189 55 1 127 90 101 62 187 256 223 221 207 241 231 207 181 171 156 149
242 233 205 195 209 205 169 128 151 233 180 199 162 167 196 172 148 171 179 186 178 172 208 204 203 172 150 99 13 173 140 250 293 203 238 321 217 242 266 287 221 175 167 161 150
238 231 210 201 186 187 171 145 195 229 230 87 115 141 186 142 184 196 171 200 228 236 181 197 218 176 184 202 168 194 180 168 226 210 262 343 234 251 14 78 44 151 156 147 155
237 212 204 201 188 187 190 185 195 213 210 217 135 171 193 168 141 165 213 225 203 206 200 195 228 109 143 174 143 175 218 244 7 47 358 216 260 274 154 144 190 152 153 166 169
224 214 212 196 189 189 194 213 226 215 274 201 219 186 178 176 184 188 185 212 221 193 216 271 222 171 69 61 315 176 152 92 206 238 251 244 241 237 219 214 185 185 176 175 174
244 222 207 193 187 199 201 222 231 231 216 226 223 228 221 181 183 194 222 229 194 177 191 189 189 117 127 211 178 131 207 213 167 190 227 276 257 231 196 192 192 196 186 181 180
245 234 176 173 211 203 211 212 208 223 228 241 240 240 228 213 193 202 214 213 178 154 188 184 137 174 210 74 176 208 178 185 174 222 234 175 258 278 20 181 180 187 185 181 186
216 255 181 177 202 208 219 228 224 204 231 232 235 233 237 219 237 209 206 216 174 170 169 169 180 186 216 335 339 203 205 210 223 106 234 196 254 344 11 93 167 171 181 183 180
243 221 207 218 214 207 201 220 221 220 241 230 238 241 226 237 237 233 219 196 173 180 179 167 161 195 224 216 144 190 199 208 208 227 209 235 248 163 214 211 183 187 183 179 181
239 215 180 205 233 211 206 215 222 221 213 213 234 232 218 228 227 240 195 106 42 169 172 178 211 211 242 247 204 176 200 208 212 225 212 251 240 236 214 203 210 187 168 177 183
272 229 285 216 160 346 223 213 217 218 202 214 222 220 221 222 222 225 216 195 181 187 166 172 228 227 254 243 233 252 248 213 216 230 238 250 255 188 220 201 178 184 181 186 187
201 254 262 278 229 232 203 317 239 235 223 225 217 227 216 222 230 242 246 224 201 159 170 145 203 187 246 201 249 264 239 232 228 224 221 238 249 210 237 197 191 189 186 188 190